SVA1460 OEMA-OERK

Flight info

Callsign SVA1460
Flight time 1h 2m
Altitude 37000
Route MEDRO M872 ORDEM
Aircraft A321/M-SDE3FGHIRWY/LB1

Departure

Time 2026-05-09 13:40
Airport Prince Mohammad Bin Abdulaziz Airport (OEMA)

Arrival

Time 2026-05-09 14:43
Airport King Khalid International Airport (OERK)
Time Latitude Longitude Altitude Speed Heading
2026-05-09 13:16 24.56279 39.71259 2159 ft 0 kts 256°
2026-05-09 13:30 24.56279 39.71260 2159 ft 0 kts 256°
2026-05-09 13:30 24.56282 39.71274 2159 ft 2 kts 255°
2026-05-09 13:30 24.56286 39.71290 2159 ft 2 kts 256°
2026-05-09 13:31 24.56290 39.71306 2159 ft 2 kts 261°
2026-05-09 13:31 24.56289 39.71322 2159 ft 2 kts 286°
2026-05-09 13:31 24.56283 39.71337 2159 ft 2 kts 306°
2026-05-09 13:31 24.56273 39.71349 2159 ft 2 kts 326°
2026-05-09 13:32 24.56260 39.71356 2159 ft 1 kts 346°
2026-05-09 13:32 24.56252 39.71357 2159 ft 0 kts 350°
2026-05-09 13:33 24.56253 39.71357 2159 ft 0 kts 350°
2026-05-09 13:34 24.56267 39.71354 2159 ft 6 kts 347°
2026-05-09 13:34 24.56347 39.71335 2159 ft 16 kts 347°
2026-05-09 13:34 24.56449 39.71312 2159 ft 9 kts 349°
2026-05-09 13:35 24.56499 39.71276 2159 ft 6 kts 288°
2026-05-09 13:35 24.56500 39.71225 2159 ft 8 kts 262°
2026-05-09 13:35 24.56488 39.71151 2159 ft 15 kts 261°
2026-05-09 13:35 24.56459 39.70979 2159 ft 27 kts 257°
2026-05-09 13:36 24.56434 39.70835 2159 ft 7 kts 261°
2026-05-09 13:36 24.56442 39.70783 2159 ft 7 kts 319°
2026-05-09 13:36 24.56511 39.70763 2159 ft 16 kts 350°
2026-05-09 13:36 24.56628 39.70736 2159 ft 20 kts 349°
2026-05-09 13:37 24.56792 39.70709 2159 ft 24 kts 345°
2026-05-09 13:37 24.56950 39.70667 2159 ft 22 kts 349°
2026-05-09 13:37 24.57094 39.70636 2159 ft 20 kts 349°
2026-05-09 13:37 24.57225 39.70608 2159 ft 18 kts 349°
2026-05-09 13:38 24.57350 39.70581 2159 ft 18 kts 349°
2026-05-09 13:38 24.57473 39.70554 2159 ft 18 kts 349°
2026-05-09 13:38 24.57541 39.70540 2159 ft 0 kts 340°
2026-05-09 13:38 24.57552 39.70531 2159 ft 4 kts 322°
2026-05-09 13:39 24.57564 39.70478 2159 ft 10 kts 263°
2026-05-09 13:39 24.57549 39.70390 2159 ft 11 kts 250°
2026-05-09 13:39 24.57492 39.70366 2159 ft 9 kts 175°
2026-05-09 13:39 24.57378 39.70389 2159 ft 41 kts 169°
2026-05-09 13:40 24.56851 39.70500 2159 ft 111 kts 167°
2026-05-09 13:40 24.55883 39.70707 2159 ft 170 kts 169°
2026-05-09 13:40 24.54682 39.70980 2660 ft 180 kts 170°
2026-05-09 13:40 24.53469 39.71241 3322 ft 182 kts 171°
2026-05-09 13:41 24.52212 39.71484 3989 ft 184 kts 172°
2026-05-09 13:41 24.50990 39.71724 4547 ft 175 kts 171°
2026-05-09 13:41 24.49850 39.71971 5064 ft 166 kts 170°
2026-05-09 13:41 24.48738 39.72221 5448 ft 163 kts 170°
2026-05-09 13:42 24.47624 39.72472 5763 ft 164 kts 171°
2026-05-09 13:42 24.46510 39.72704 6077 ft 165 kts 171°
2026-05-09 13:42 24.45370 39.72920 6390 ft 166 kts 172°
2026-05-09 13:42 24.44238 39.73116 6650 ft 167 kts 172°
2026-05-09 13:43 24.43094 39.73315 6737 ft 172 kts 168°
2026-05-09 13:43 24.42081 39.74013 6981 ft 177 kts 121°
2026-05-09 13:43 24.41855 39.75326 7223 ft 185 kts 86°
2026-05-09 13:43 24.42065 39.76760 7429 ft 195 kts 81°
2026-05-09 13:44 24.42305 39.78263 7640 ft 205 kts 83°
2026-05-09 13:44 24.42497 39.79847 7854 ft 216 kts 85°
2026-05-09 13:44 24.42647 39.81529 8073 ft 226 kts 87°
2026-05-09 13:44 24.42769 39.83306 8294 ft 237 kts 88°
2026-05-09 13:45 24.42872 39.85130 8496 ft 249 kts 88°
2026-05-09 13:45 24.42969 39.87098 8665 ft 265 kts 88°
2026-05-09 13:45 24.43064 39.89178 8916 ft 279 kts 89°
2026-05-09 13:45 24.43160 39.91347 9163 ft 292 kts 89°
2026-05-09 13:46 24.43256 39.93593 9516 ft 300 kts 89°
2026-05-09 13:46 24.43352 39.95893 10036 ft 302 kts 89°
2026-05-09 13:46 24.43446 39.98203 10398 ft 310 kts 89°
2026-05-09 13:46 24.43545 40.00644 10625 ft 323 kts 89°
2026-05-09 13:47 24.43647 40.03149 10843 ft 335 kts 89°
2026-05-09 13:47 24.43750 40.05716 11066 ft 345 kts 89°
2026-05-09 13:47 24.43854 40.08357 11455 ft 350 kts 89°
2026-05-09 13:47 24.43959 40.11029 11949 ft 351 kts 89°
2026-05-09 13:48 24.44065 40.13711 12431 ft 353 kts 89°
2026-05-09 13:48 24.44172 40.16400 12890 ft 356 kts 89°
2026-05-09 13:48 24.44278 40.19114 13343 ft 358 kts 89°
2026-05-09 13:48 24.44385 40.21856 13794 ft 361 kts 89°
2026-05-09 13:49 24.44492 40.24625 14241 ft 363 kts 89°
2026-05-09 13:49 24.44598 40.27379 14679 ft 366 kts 89°
2026-05-09 13:49 24.44704 40.30167 15113 ft 369 kts 89°
2026-05-09 13:49 24.44811 40.32983 15544 ft 371 kts 89°
2026-05-09 13:50 24.44918 40.35823 15969 ft 374 kts 89°
2026-05-09 13:50 24.45025 40.38673 16388 ft 377 kts 90°
2026-05-09 13:50 24.45133 40.41567 16804 ft 380 kts 90°
2026-05-09 13:50 24.45240 40.44471 17213 ft 383 kts 90°
2026-05-09 13:51 24.45347 40.47386 17614 ft 385 kts 90°
2026-05-09 13:51 24.45453 40.50303 18009 ft 388 kts 90°
2026-05-09 13:51 24.45561 40.53287 18404 ft 391 kts 90°
2026-05-09 13:51 24.45669 40.56255 18790 ft 394 kts 90°
2026-05-09 13:52 24.45759 40.59272 19172 ft 397 kts 92°
2026-05-09 13:52 24.45699 40.62302 19555 ft 398 kts 96°
2026-05-09 13:52 24.45461 40.65350 19940 ft 400 kts 99°
2026-05-09 13:52 24.45152 40.68385 20320 ft 403 kts 99°
2026-05-09 13:53 24.44831 40.71451 20697 ft 406 kts 99°
2026-05-09 13:53 24.44511 40.74513 21071 ft 409 kts 99°
2026-05-09 13:53 24.44188 40.77618 21441 ft 412 kts 99°
2026-05-09 13:53 24.43865 40.80738 21809 ft 415 kts 99°
2026-05-09 13:54 24.43539 40.83908 22213 ft 417 kts 99°
2026-05-09 13:54 24.43212 40.87087 22634 ft 419 kts 99°
2026-05-09 13:54 24.42888 40.90226 23031 ft 421 kts 99°
2026-05-09 13:54 24.42554 40.93454 23430 ft 423 kts 100°
2026-05-09 13:55 24.42225 40.96624 23815 ft 426 kts 100°
2026-05-09 13:55 24.41888 40.99869 24204 ft 428 kts 100°
2026-05-09 13:55 24.41550 41.03110 24586 ft 431 kts 100°
2026-05-09 13:55 24.41210 41.06364 24959 ft 433 kts 100°
2026-05-09 13:56 24.40863 41.09687 25312 ft 437 kts 100°
2026-05-09 13:56 24.40517 41.12998 25648 ft 440 kts 100°
2026-05-09 13:56 24.40168 41.16329 25981 ft 444 kts 100°
2026-05-09 13:56 24.39817 41.19673 26313 ft 447 kts 100°
2026-05-09 13:57 24.39456 41.23102 26651 ft 451 kts 100°
2026-05-09 13:57 24.39096 41.26521 26981 ft 455 kts 99°
2026-05-09 13:57 24.38735 41.29933 27306 ft 458 kts 99°
2026-05-09 13:57 24.38361 41.33454 27639 ft 462 kts 99°
2026-05-09 13:58 24.37989 41.36955 27966 ft 466 kts 99°
2026-05-09 13:58 24.37617 41.40456 28285 ft 469 kts 99°
2026-05-09 13:58 24.37237 41.44014 28599 ft 472 kts 99°
2026-05-09 13:58 24.36856 41.47578 28905 ft 476 kts 99°
2026-05-09 13:59 24.36466 41.51212 29209 ft 479 kts 99°
2026-05-09 13:59 24.36079 41.54819 29503 ft 482 kts 98°
2026-05-09 13:59 24.35685 41.58478 29794 ft 485 kts 98°
2026-05-09 13:59 24.35286 41.62178 30084 ft 488 kts 98°
2026-05-09 14:00 24.34888 41.65861 30368 ft 491 kts 98°
2026-05-09 14:00 24.34754 41.67094 30476 ft 491 kts 98°
2026-05-09 14:00 24.34078 41.73315 31114 ft 491 kts 98°
2026-05-09 14:00 24.33679 41.76983 31482 ft 491 kts 97°
2026-05-09 14:01 24.33377 41.80719 31833 ft 491 kts 94°
2026-05-09 14:01 24.33272 41.84446 32179 ft 491 kts 90°
2026-05-09 14:01 24.33373 41.88184 32531 ft 491 kts 86°
2026-05-09 14:01 24.33582 41.91890 32891 ft 490 kts 85°
2026-05-09 14:02 24.33812 41.95604 33254 ft 489 kts 84°
2026-05-09 14:02 24.34045 41.99348 33619 ft 488 kts 84°
2026-05-09 14:02 24.34269 42.03029 33975 ft 487 kts 84°
2026-05-09 14:02 24.34490 42.06725 34330 ft 486 kts 84°
2026-05-09 14:03 24.34705 42.10365 34669 ft 484 kts 84°
2026-05-09 14:03 24.34920 42.14056 34999 ft 483 kts 84°
2026-05-09 14:03 24.35130 42.17709 35309 ft 483 kts 84°
2026-05-09 14:03 24.35340 42.21397 35574 ft 483 kts 84°
2026-05-09 14:04 24.35546 42.25037 35794 ft 483 kts 84°
2026-05-09 14:04 24.35754 42.28738 35984 ft 484 kts 84°
2026-05-09 14:04 24.35961 42.32429 36165 ft 485 kts 84°
2026-05-09 14:04 24.36167 42.36125 36344 ft 486 kts 84°
2026-05-09 14:05 24.36370 42.39795 36513 ft 487 kts 84°
2026-05-09 14:05 24.36575 42.43503 36672 ft 487 kts 84°
2026-05-09 14:05 24.36776 42.47166 36820 ft 488 kts 84°
2026-05-09 14:05 24.36979 42.50887 36964 ft 489 kts 84°
2026-05-09 14:06 24.37386 42.58376 37028 ft 491 kts 84°
2026-05-09 14:06 24.37786 42.65807 37029 ft 491 kts 84°
2026-05-09 14:07 24.38185 42.73298 37030 ft 491 kts 84°
2026-05-09 14:07 24.38576 42.80717 37030 ft 491 kts 84°
2026-05-09 14:08 24.38969 42.88225 37031 ft 491 kts 84°
2026-05-09 14:08 24.39354 42.95660 37031 ft 491 kts 84°
2026-05-09 14:09 24.39740 43.03112 37030 ft 492 kts 85°
2026-05-09 14:09 24.40125 43.10602 37030 ft 493 kts 85°
2026-05-09 14:10 24.40690 43.21833 37031 ft 493 kts 86°
2026-05-09 14:11 24.41057 43.29331 37031 ft 493 kts 86°
2026-05-09 14:11 24.41421 43.36801 37031 ft 493 kts 86°
2026-05-09 14:12 24.41786 43.44333 37031 ft 493 kts 86°
2026-05-09 14:12 24.42145 43.51796 37031 ft 493 kts 86°
2026-05-09 14:13 24.42502 43.59292 37031 ft 493 kts 86°
2026-05-09 14:15 24.43891 43.89279 37031 ft 493 kts 87°
2026-05-09 14:15 24.44229 43.96789 37031 ft 493 kts 87°
2026-05-09 14:16 24.44561 44.04267 37031 ft 493 kts 87°
2026-05-09 14:16 24.45012 44.11749 37030 ft 493 kts 82°
2026-05-09 14:17 24.46122 44.19176 37031 ft 492 kts 78°
2026-05-09 14:17 24.47426 44.26498 37031 ft 492 kts 77°
2026-05-09 14:18 24.48716 44.33830 37031 ft 492 kts 78°
2026-05-09 14:18 24.49991 44.41185 37025 ft 485 kts 78°
2026-05-09 14:18 24.50609 44.44775 36800 ft 477 kts 78°
2026-05-09 14:19 24.51225 44.48351 35940 ft 484 kts 78°
2026-05-09 14:19 24.51855 44.51998 34745 ft 498 kts 78°
2026-05-09 14:19 24.52511 44.55787 33613 ft 508 kts 78°
2026-05-09 14:19 24.53171 44.59589 32701 ft 512 kts 78°
2026-05-09 14:20 24.53833 44.63420 31892 ft 513 kts 79°
2026-05-09 14:20 24.54491 44.67249 31092 ft 512 kts 80°
2026-05-09 14:20 24.55149 44.71096 30247 ft 512 kts 81°
2026-05-09 14:21 24.56447 44.78724 28930 ft 502 kts 81°
2026-05-09 14:21 24.57076 44.82433 28394 ft 495 kts 81°
2026-05-09 14:21 24.57697 44.86102 27818 ft 489 kts 82°
2026-05-09 14:21 24.58315 44.89758 27221 ft 483 kts 82°
2026-05-09 14:22 24.58926 44.93371 26655 ft 477 kts 82°
2026-05-09 14:22 24.59525 44.96904 26135 ft 469 kts 82°
2026-05-09 14:22 24.60105 45.00324 26015 ft 452 kts 82°
2026-05-09 14:22 24.60673 45.03677 26012 ft 443 kts 83°
2026-05-09 14:23 24.61233 45.07010 26002 ft 440 kts 83°
2026-05-09 14:23 24.61777 45.10265 25966 ft 438 kts 83°
2026-05-09 14:23 24.62329 45.13567 25486 ft 437 kts 83°
2026-05-09 14:23 24.62872 45.16816 24957 ft 432 kts 83°
2026-05-09 14:24 24.63410 45.20041 24474 ft 426 kts 83°
2026-05-09 14:24 24.63940 45.23214 24008 ft 420 kts 83°
2026-05-09 14:24 24.64465 45.26359 23546 ft 414 kts 82°
2026-05-09 14:24 24.64973 45.29414 23090 ft 409 kts 82°
2026-05-09 14:25 24.65480 45.32465 22631 ft 403 kts 82°
2026-05-09 14:25 24.65983 45.35495 22165 ft 398 kts 82°
2026-05-09 14:25 24.66473 45.38455 21708 ft 394 kts 82°
2026-05-09 14:25 24.66955 45.41370 21249 ft 390 kts 82°
2026-05-09 14:26 24.67437 45.44285 20785 ft 386 kts 82°
2026-05-09 14:26 24.67911 45.47154 20321 ft 382 kts 82°
2026-05-09 14:26 24.68386 45.50037 19851 ft 378 kts 82°
2026-05-09 14:26 24.68850 45.52856 19384 ft 375 kts 81°
2026-05-09 14:27 24.69311 45.55656 18916 ft 372 kts 81°
2026-05-09 14:27 24.69770 45.58452 18443 ft 369 kts 81°
2026-05-09 14:27 24.70219 45.61184 17978 ft 367 kts 81°
2026-05-09 14:27 24.70668 45.63921 17508 ft 364 kts 81°
2026-05-09 14:28 24.71122 45.66672 17032 ft 362 kts 80°
2026-05-09 14:28 24.71663 45.69345 16565 ft 360 kts 77°
2026-05-09 14:28 24.72267 45.72027 16091 ft 358 kts 77°
2026-05-09 14:28 24.72865 45.74650 15625 ft 356 kts 77°
2026-05-09 14:29 24.73468 45.77300 15151 ft 355 kts 77°
2026-05-09 14:29 24.74058 45.79894 14685 ft 353 kts 76°
2026-05-09 14:29 24.74657 45.82532 14210 ft 351 kts 76°
2026-05-09 14:29 24.75240 45.85111 13746 ft 350 kts 76°
2026-05-09 14:30 24.75827 45.87706 13278 ft 348 kts 76°
2026-05-09 14:30 24.76403 45.90254 12862 ft 346 kts 76°
2026-05-09 14:30 24.76987 45.92830 12856 ft 350 kts 76°
2026-05-09 14:30 24.77575 45.95427 12881 ft 351 kts 76°
2026-05-09 14:31 24.78169 45.98057 12906 ft 351 kts 76°
2026-05-09 14:31 24.78755 46.00652 12931 ft 352 kts 76°
2026-05-09 14:31 24.79345 46.03273 12955 ft 352 kts 76°
2026-05-09 14:31 24.79930 46.05876 12978 ft 352 kts 76°
2026-05-09 14:32 24.80511 46.08459 12990 ft 352 kts 76°
2026-05-09 14:32 24.81101 46.11087 12992 ft 352 kts 76°
2026-05-09 14:32 24.81685 46.13692 12922 ft 352 kts 76°
2026-05-09 14:32 24.82406 46.16267 12358 ft 354 kts 66°
2026-05-09 14:33 24.83629 46.18601 11814 ft 352 kts 52°
2026-05-09 14:33 24.85255 46.20606 11314 ft 350 kts 45°
2026-05-09 14:33 24.86956 46.22486 10837 ft 346 kts 45°
2026-05-09 14:33 24.88631 46.24311 10516 ft 337 kts 45°
2026-05-09 14:34 24.90255 46.26091 10368 ft 323 kts 45°
2026-05-09 14:34 24.91825 46.27822 10211 ft 311 kts 45°
2026-05-09 14:34 24.93311 46.29470 10061 ft 299 kts 45°
2026-05-09 14:34 24.94740 46.31060 9774 ft 293 kts 45°
2026-05-09 14:35 24.96181 46.32666 9369 ft 292 kts 45°
2026-05-09 14:35 24.97594 46.34241 8991 ft 290 kts 45°
2026-05-09 14:35 24.99010 46.35822 8622 ft 287 kts 45°
2026-05-09 14:35 25.00404 46.37379 8260 ft 284 kts 45°
2026-05-09 14:36 25.01765 46.38900 7906 ft 282 kts 46°
2026-05-09 14:36 25.03133 46.40429 7550 ft 279 kts 46°
2026-05-09 14:36 25.04501 46.41960 7192 ft 277 kts 46°
2026-05-09 14:36 25.05845 46.43464 6836 ft 274 kts 46°
2026-05-09 14:37 25.07176 46.44955 6482 ft 272 kts 46°
2026-05-09 14:37 25.08486 46.46423 6131 ft 270 kts 46°
2026-05-09 14:37 25.09801 46.47895 5777 ft 268 kts 46°
2026-05-09 14:37 25.11087 46.49336 5463 ft 264 kts 46°
2026-05-09 14:38 25.12345 46.50745 5371 ft 251 kts 46°
2026-05-09 14:38 25.13541 46.52085 5270 ft 239 kts 46°
2026-05-09 14:38 25.14534 46.53501 5104 ft 231 kts 69°
2026-05-09 14:38 25.14670 46.55211 4999 ft 220 kts 103°
2026-05-09 14:39 25.13963 46.56677 5002 ft 222 kts 131°
2026-05-09 14:39 25.12745 46.57726 5010 ft 224 kts 147°
2026-05-09 14:39 25.11379 46.58547 5003 ft 224 kts 150°
2026-05-09 14:39 25.10003 46.59342 4905 ft 224 kts 150°
2026-05-09 14:40 25.08648 46.60161 4686 ft 219 kts 149°
2026-05-09 14:40 25.07352 46.60974 4429 ft 206 kts 148°
2026-05-09 14:40 25.06158 46.61736 4117 ft 195 kts 148°
2026-05-09 14:40 25.05024 46.62460 3869 ft 180 kts 148°
2026-05-09 14:41 25.03980 46.63125 3605 ft 168 kts 148°
2026-05-09 14:41 25.03007 46.63742 3374 ft 157 kts 148°
2026-05-09 14:41 25.02080 46.64331 3154 ft 152 kts 148°
2026-05-09 14:41 25.01163 46.64915 3025 ft 151 kts 147°
2026-05-09 14:42 25.00254 46.65497 2798 ft 151 kts 148°
2026-05-09 14:42 24.99353 46.66063 2595 ft 150 kts 148°
2026-05-09 14:42 24.98436 46.66642 2389 ft 150 kts 148°
2026-05-09 14:42 24.97535 46.67210 2188 ft 149 kts 148°
2026-05-09 14:43 24.96649 46.67766 2055 ft 138 kts 148°
2026-05-09 14:43 24.95948 46.68212 2050 ft 92 kts 148°
2026-05-09 14:43 24.95544 46.68469 2052 ft 41 kts 150°
2026-05-09 14:43 24.95310 46.68618 2053 ft 37 kts 148°
2026-05-09 14:44 24.95120 46.68740 2051 ft 27 kts 149°
2026-05-09 14:44 24.95014 46.68856 2049 ft 20 kts 127°
2026-05-09 14:44 24.94958 46.68971 2047 ft 12 kts 105°
2026-05-09 14:44 24.94967 46.69067 2046 ft 12 kts 65°
2026-05-09 14:45 24.95018 46.69138 2046 ft 11 kts 52°
2026-05-09 14:45 24.95049 46.69222 2045 ft 13 kts 68°
2026-05-09 14:45 24.95067 46.69259 2044 ft 0 kts 59°
2026-05-09 14:47 24.95070 46.69266 2044 ft 2 kts 59°
2026-05-09 14:47 24.95081 46.69286 2044 ft 4 kts 60°
2026-05-09 14:47 24.95099 46.69320 2043 ft 6 kts 60°
2026-05-09 14:48 24.95124 46.69367 2042 ft 8 kts 60°
2026-05-09 14:48 24.95156 46.69429 2041 ft 9 kts 59°
2026-05-09 14:48 24.95191 46.69493 2040 ft 10 kts 59°
2026-05-09 14:48 24.95245 46.69545 2040 ft 10 kts 22°
2026-05-09 14:49 24.95317 46.69565 2040 ft 10 kts 13°
2026-05-09 14:49 24.95377 46.69580 2040 ft 6 kts 14°
2026-05-09 14:49 24.95374 46.69591 2040 ft 4 kts 192°
2026-05-09 14:49 24.95334 46.69576 2040 ft 7 kts 201°
2026-05-09 14:50 24.95273 46.69552 2040 ft 11 kts 198°
2026-05-09 14:50 24.95200 46.69508 2040 ft 13 kts 230°
2026-05-09 14:50 24.95144 46.69403 2042 ft 19 kts 239°
2026-05-09 14:50 24.95062 46.69249 2045 ft 23 kts 239°
2026-05-09 14:51 24.95007 46.69172 2046 ft 8 kts 202°
2026-05-09 14:51 24.94946 46.69188 2045 ft 13 kts 149°
2026-05-09 14:51 24.94835 46.69261 2043 ft 20 kts 149°
2026-05-09 14:51 24.94712 46.69340 2043 ft 20 kts 151°
2026-05-09 14:52 24.94592 46.69414 2043 ft 19 kts 150°
2026-05-09 14:52 24.94513 46.69478 2043 ft 9 kts 113°
2026-05-09 14:52 24.94528 46.69550 2043 ft 11 kts 60°
2026-05-09 14:52 24.94585 46.69658 2043 ft 20 kts 60°
2026-05-09 14:53 24.94657 46.69794 2045 ft 19 kts 60°
2026-05-09 14:53 24.94725 46.69922 2045 ft 19 kts 60°
2026-05-09 14:53 24.94794 46.70052 2044 ft 19 kts 60°
2026-05-09 14:53 24.94860 46.70181 2043 ft 18 kts 60°
2026-05-09 14:54 24.94921 46.70298 2043 ft 16 kts 60°
2026-05-09 14:54 24.94987 46.70424 2043 ft 20 kts 60°
2026-05-09 14:54 24.95054 46.70552 2043 ft 18 kts 60°
2026-05-09 14:54 24.95114 46.70666 2045 ft 16 kts 60°
2026-05-09 14:55 24.95179 46.70790 2046 ft 19 kts 60°
2026-05-09 14:55 24.95248 46.70917 2044 ft 19 kts 60°
2026-05-09 14:55 24.95306 46.71018 2042 ft 10 kts 34°
2026-05-09 14:55 24.95367 46.71012 2043 ft 8 kts 334°
2026-05-09 14:56 24.95410 46.70987 2043 ft 5 kts 328°
2026-05-09 14:56 24.95441 46.70964 2044 ft 7 kts 327°
2026-05-09 14:56 24.95481 46.70935 2045 ft 5 kts 326°
2026-05-09 14:56 24.95508 46.70916 2046 ft 5 kts 332°
2026-05-09 14:57 24.95567 46.70887 2046 ft 11 kts 337°
2026-05-09 14:57 24.95638 46.70851 2046 ft 10 kts 332°
2026-05-09 14:57 24.95692 46.70810 2047 ft 8 kts 324°
2026-05-09 14:57 24.95743 46.70772 2047 ft 10 kts 329°
2026-05-09 14:58 24.95810 46.70730 2047 ft 7 kts 318°
2026-05-09 14:58 24.95820 46.70697 2048 ft 2 kts 274°
2026-05-09 14:58 24.95818 46.70684 2049 ft 4 kts 248°
2026-05-09 14:58 24.95779 46.70612 2049 ft 13 kts 238°
2026-05-09 14:59 24.95761 46.70565 2049 ft 0 kts 311°
2026-05-09 14:59 24.95774 46.70544 2049 ft 5 kts 298°
2026-05-09 14:59 24.95791 46.70506 2049 ft 5 kts 298°
2026-05-09 14:59 24.95796 46.70495 2049 ft 0 kts 299°